Weather History for KTVC - March, 2013

Change the Weather History Date:

Sunday, March 17, 2013

  Actual Average Record
Temperature  
Mean Temperature 22 °F 31 °F  
Max Temperature 26 °F 40 °F 82 °F (2012)
Min Temperature 17 °F 22 °F -8 °F (1916)
Degree Days  
Heating Degree Days 43 34  
Month to date heating degree days 646 627  
Since 1 July heating degree days 5492 5967  
Cooling Degree Days 0 0  
Month to date cooling degree days 0 0  
Year to date cooling degree days 0 0  
Moisture  
Dew Point 11 °F    
Average Humidity 65    
Maximum Humidity 84    
Minimum Humidity 46    
Precipitation  
Precipitation T in 0.06 in 1.05 in (1934)
Month to date precipitation 1.33 0.97  
Year to date precipitation 4.87 5.29  
Snow  
Snow 0.00 in - - ()
Snow Depth 3.00 in    
Sea Level Pressure  
Sea Level Pressure 30.18 in    
Wind  
Wind Speed 8 mph (North)    
Max Wind Speed 22 mph    
Max Gust Speed 28 mph    
Visibility 8 miles    
Events Snow    
T = Trace of Precipitation, MM = Missing Value Source: NWS Daily Summary

Daily Weather History Graph

Daily Weather History Graph

Search for Another Location

Airport or City:

Trip Planner

Search our weather history database for the weather conditions in past years. The results will help you decide how hot, cold, wet, or windy it might be!

Date:

Astronomy

Mar. 17, 2013 Rise Set
Actual Time 7:50 AM EDT 7:51 PM EDT
Civil Twilight 7:21 AM EDT 8:20 PM EDT
Nautical Twilight 6:47 AM EDT 8:54 PM EDT
Astronomical Twilight 6:12 AM EDT 9:29 PM EDT
Moon 10:49 AM EDT (3/17) 1:11 AM EDT (3/17)
Length of Visible Light 12h 58m
Length of Day
12h 00m
Waxing Crescent, 31% of the Moon is Illuminated
Mar 17
Waxing Crescent
Mar 19
First Quarter
Mar 27
Full
Apr 3
Last Quarter
Apr 10
New

Hourly Weather History & Observations

Time (EDT) Temp. Windchill Dew Point Humidity Pressure Visibility Wind Dir Wind Speed Gust Speed Precip Events Conditions
12:08 AM 21.2 °F 14.9 °F 12.2 °F 68% 30.01 in 3.0 mi SSW 4.6 mph - 0.00 in Snow Light Snow
12:37 AM 21.2 °F 16.4 °F 15.8 °F 80% 30.02 in 1.8 mi West 3.5 mph - 0.00 in Snow Light Snow
12:53 AM 21.9 °F 14.5 °F 18.0 °F 85% 30.06 in 1.5 mi SW 5.8 mph - 0.00 in Snow Light Snow
1:02 AM 21.2 °F 14.9 °F 17.6 °F 86% 30.03 in 3.0 mi SW 4.6 mph - 0.00 in Snow Light Snow
1:12 AM 21.2 °F - 17.6 °F 86% 30.03 in 9.0 mi Calm Calm - 0.00 in   Overcast
1:31 AM 23.0 °F 13.1 °F 17.6 °F 80% 30.04 in 1.8 mi NW 9.2 mph - 0.00 in Snow Light Snow
1:37 AM 24.8 °F 14.6 °F 19.4 °F 80% 30.04 in 2.0 mi NNW 10.4 mph - 0.00 in Snow Light Snow
1:53 AM 25.0 °F 11.7 °F 16.0 °F 69% 30.07 in 8.0 mi NNW 17.3 mph 27.6 mph 0.00 in   Overcast
2:53 AM 25.0 °F 11.7 °F 10.0 °F 53% 30.12 in 10.0 mi NW 17.3 mph 24.2 mph N/A   Overcast
3:53 AM 23.0 °F 10.6 °F 10.0 °F 58% 30.16 in 10.0 mi NNW 13.8 mph 23.0 mph N/A   Overcast
4:53 AM 21.9 °F 10.4 °F 10.0 °F 60% 30.17 in 10.0 mi North 11.5 mph 23.0 mph N/A   Overcast
5:53 AM 21.0 °F 8.1 °F 8.1 °F 57% 30.20 in 10.0 mi North 13.8 mph 21.9 mph N/A   Overcast
6:53 AM 21.0 °F 10.6 °F 7.0 °F 55% 30.22 in 10.0 mi North 9.2 mph - N/A   Overcast
7:53 AM 19.9 °F 7.3 °F 7.0 °F 57% 30.24 in 10.0 mi NNE 12.7 mph - 0.00 in   Overcast
8:53 AM 19.0 °F 7.5 °F 6.1 °F 57% 30.26 in 10.0 mi NNE 10.4 mph 20.7 mph N/A   Overcast
9:53 AM 19.9 °F 10.1 °F 6.1 °F 55% 30.28 in 10.0 mi NE 8.1 mph - N/A   Overcast
10:53 AM 19.0 °F 9.0 °F 7.0 °F 59% 30.30 in 10.0 mi ENE 8.1 mph - N/A   Overcast
11:53 AM 19.9 °F 13.4 °F 5.0 °F 52% 30.33 in 10.0 mi Variable 4.6 mph - N/A   Mostly Cloudy
12:53 PM 21.0 °F 11.4 °F 7.0 °F 55% 30.33 in 10.0 mi NE 8.1 mph - N/A   Scattered Clouds
1:53 PM 21.9 °F 14.5 °F 7.0 °F 53% 30.32 in 10.0 mi NNW 5.8 mph - N/A   Partly Cloudy
2:53 PM 23.0 °F 14.7 °F 7.0 °F 50% 30.29 in 10.0 mi North 6.9 mph - N/A   Clear
4:53 PM 25.0 °F 17.1 °F 7.0 °F 46% 30.25 in 10.0 mi North 6.9 mph - N/A   Clear
5:53 PM 26.1 °F 18.4 °F 10.0 °F 51% 30.24 in 10.0 mi NE 6.9 mph - N/A   Clear
6:53 PM 25.0 °F 17.1 °F 12.0 °F 58% 30.25 in 10.0 mi North 6.9 mph - N/A   Clear
7:53 PM 25.0 °F 20.7 °F 10.9 °F 55% 30.23 in 10.0 mi NNW 3.5 mph - N/A   Partly Cloudy
8:53 PM 21.0 °F - 10.0 °F 63% 30.22 in 10.0 mi Calm Calm - N/A   Clear
9:53 PM 18.0 °F - 10.9 °F 74% 30.21 in 10.0 mi Calm Calm - N/A   Clear
10:53 PM 21.0 °F 16.2 °F 7.0 °F 55% 30.21 in 10.0 mi SE 3.5 mph - N/A   Clear
11:53 PM 21.9 °F 14.5 °F 6.1 °F 51% 30.21 in 10.0 mi SE 5.8 mph - N/A   Clear